Miscellaneous Local Product
Issued by NWS North Platte, NE

Home | Current Version | Previous Version | Text Only | Print | Product List | Glossary On
Versions: 1 2 3 4 5 6 7 8 9 10 11 12 13 14 15 16 17 18 19 20 21 22 23 24 25 26 27 28 29 30 31 32 33 34 35 36 37 38 39 40 41 42 43 44 45 46 47 48 49 50
000
AXUS43 KLBF 270010
MISLBF


WESTERN AND NORTH CENTRAL NEBRASKA HOURLY WEATHER ROUNDUP
NATIONAL WEATHER SERVICE NORTH PLATTE NE
700 PM CDT TUE AUG 26 2014

***STATIONS NOT REPORTING VARIABLES SUCH AS SKY/WEATHER OR
PRESSURE ARE PROVIDED BY THE NEBRASKA DEPARTMENT OF
ROADS...RAWS...AND APRS NETWORKS...AND ARE NOT UNDER
NATIONAL WEATHER SERVICE QUALITY CONTROL***

...OBSERVATIONS IN AND NEAR THE EASTERN PANHANDLE OF NEBRASKA...

CITY           SKY/WX    TMP DP  RH WIND       PRES   REMARKS
PINE RIDGE     MOSUNNY   80  61  52 NE7       30.06S
CHADRON        MOSUNNY   84  59  42 N12       30.04S
ALLIANCE       PTSUNNY   76  57  51 S20       30.10S
SIDNEY         CLOUDY    77  62  59 SE14      30.14F
WHITECLAY        N/A     83  58  41 E6          N/A
RUSHVILLE        N/A     81  54  38 S15         N/A
GORDON           N/A     84  58  40 S12         N/A
LISCO            N/A     79  62  55 E15         N/A
BIG SPRINGS      N/A     77  64  64 S6          N/A
$$

...OBSERVATIONS IN NORTH CENTRAL NEBRASKA...

CITY           SKY/WX    TMP DP  RH WIND       PRES   REMARKS
VALENTINE      SUNNY     80  61  52 SE15      30.07F
THEDFORD       MOSUNNY   80  61  52 S10G16    30.10S
AINSWORTH      SUNNY     76  61  59 SE7       30.10S
O`NEILL        MOSUNNY   74  63  68 E9        30.12S
ORD            SUNNY     74  65  73 SE8       30.09F
BROKEN BOW     SUNNY     78  65  63 SE9       30.10S
BROWNLEE         N/A     83  59  43 E13         N/A
SPRINGVIEW       N/A     79  64  59 SE8         N/A
ROSE             N/A     79  70  73 E7          N/A
NEWPORT          N/A     76  65  68 E12         N/A
SARGENT          N/A     76  67  73 CALM        N/A
COMSTOCK         N/A     82  71  70 S8          N/A
CHAMBERS         N/A     73  63  70 MISG        N/A
$$

...OBSERVATIONS IN SOUTHWEST NEBRASKA AND FAR NORTHEAST COLORADO...

CITY           SKY/WX    TMP DP  RH WIND       PRES   REMARKS
WRAY             N/A     81  60  49 SE12      30.11S
HOLYOKE        FAIR      79  63  57 SE10      30.11F
IMPERIAL       MOSUNNY   78  64  61 SE9       30.10F
OGALLALA       MOSUNNY   74  62  66 S3        30.11F
NORTH PLATTE   SUNNY     78  62  57 S7        30.10S
MCCOOK         SUNNY     80  65  59 NE10      30.08S
LEXINGTON      PTSUNNY   78  68  71 E7        30.10S
PAXTON           N/A     76  64  67 S7          N/A
SUTHERLAND       N/A     81  67  63 S7          N/A
BRADY            N/A     78  66  66 CALM        N/A
GOTHENBURG       N/A     78  63  60 E5          N/A
CALLAWAY         N/A     78  67  69 S9          N/A
$$

...SOME WEATHER OBSERVATIONS FROM AROUND THE REGION...

CITY           SKY/WX    TMP DP  RH WIND       PRES   REMARKS
DENVER         CLOUDY    69  59  70 CALM      30.18F
LARAMIE        CLOUDY    65  53  65 SE24G31   30.28R
CHEYENNE       CLOUDY    71  52  50 SW18G26   30.21F
SCOTTSBLUFF    TSTM      65  60  84 SE7       30.11R
RAPID CITY     MOSUNNY   76  58  53 NE7       30.10S
PIERRE         PTSUNNY   73  56  54 E13       30.08F
WINNER         FAIR      77  58  51 SE15      30.08F
SIOUX FALLS    PTSUNNY   70  56  61 E7        30.13F
OMAHA          PTSUNNY   74  68  81 NE7       30.10S
GRAND ISLAND   SUNNY     78  68  71 E8        30.09F
KANSAS CITY    MOSUNNY   83  72  69 NE10      30.06R
WICHITA        LGT RAIN  80  69  69 E5        30.01F
HAYS           SUNNY     88  64  45 S12G18    30.04S
LIBERAL        PTSUNNY   88  61  40 SE21      30.07S
GOODLAND       PTSUNNY   81  61  50 S9        30.11R
$$



USA.gov is the U.S. government's official web portal to all federal, state and local government web resources and services.